Theta_e
296 296 297 297 297 297 297 297 298 298 297 297 296 296 295 295 295 295 295 294 294 293 293 293 293 292 292 291 291 292 292 292 292 293 294 294 294 293 293 294 294 294 294 295 295 296 296 296 296 297 297 298 298 298 298 299 299 300 301 302 303 304 306 307 309 311 312 313 313
295 296 297 298 298 298 297 297 297 298 297 297 296 296 296 295 295 295 294 294 294 294 293 293 292 291 291 291 291 291 291 292 292 292 293 293 293 293 293 294 294 294 294 294 295 295 296 296 296 296 297 297 297 297 297 298 299 300 300 301 302 304 305 307 309 311 312 313 313
295 295 295 296 296 296 296 296 296 296 296 296 297 296 296 296 296 295 295 295 294 293 293 293 292 291 291 291 291 291 291 292 292 292 292 293 293 293 293 294 294 294 294 294 294 295 295 295 296 297 297 297 297 297 297 298 299 299 300 301 302 303 305 307 309 311 312 313 313
295 294 294 294 294 295 295 296 295 295 296 296 296 296 296 296 296 295 295 294 293 293 292 292 291 291 291 291 291 291 291 292 292 292 292 293 293 293 294 294 294 294 294 294 294 294 294 295 295 296 296 296 296 296 297 298 298 299 300 301 302 303 304 306 308 309 311 312 312
294 294 294 295 294 294 295 295 295 295 296 296 296 296 296 296 296 295 295 294 293 293 292 291 291 291 290 291 291 291 291 292 293 293 293 293 294 294 294 295 294 294 294 293 294 294 294 294 295 295 296 296 296 296 297 298 298 299 300 301 302 303 305 306 308 309 311 312 312
294 294 294 295 294 294 295 295 295 295 295 296 295 295 295 296 296 295 295 294 294 293 292 292 292 292 292 291 291 290 291 291 292 292 293 293 293 294 294 294 294 294 294 294 294 293 293 293 294 295 295 296 296 296 297 297 297 298 299 300 301 303 304 305 307 309 311 312 312
294 294 294 294 294 294 294 295 295 295 295 295 295 294 294 295 295 295 294 295 294 294 294 294 293 292 291 290 290 290 290 291 291 292 292 293 293 293 294 294 294 294 294 294 293 293 293 293 294 294 295 296 295 296 296 297 297 298 298 299 300 302 303 304 305 307 308 309 311
294 294 294 294 294 294 294 294 294 295 295 295 294 294 294 294 294 294 294 294 294 294 294 294 292 291 290 290 290 290 290 290 291 292 292 293 293 293 293 293 293 293 293 294 293 293 293 293 294 294 294 295 295 295 296 297 297 297 297 298 299 301 302 303 303 304 305 306 308
293 293 294 294 294 294 294 294 294 294 294 294 294 294 294 294 294 294 294 294 294 294 294 293 292 291 290 289 289 289 290 290 291 292 293 293 293 293 293 293 293 293 293 294 294 293 293 293 294 294 294 295 295 295 296 296 296 297 297 298 299 300 301 302 302 303 304 304 306
293 293 293 293 293 293 294 293 293 294 293 293 294 294 294 295 295 295 294 295 295 294 293 293 292 291 290 289 289 289 290 290 291 292 292 293 293 293 293 293 293 293 293 294 294 293 293 293 293 294 294 295 295 295 296 296 296 296 297 297 298 298 299 300 301 301 302 304 305
292 293 293 293 293 293 293 293 293 293 293 293 293 293 294 294 294 294 295 295 294 293 293 293 292 291 291 290 290 289 290 290 290 291 292 293 293 293 293 293 293 293 293 293 293 293 293 293 293 293 294 294 295 295 296 296 296 296 296 296 296 297 297 298 299 300 301 303 304
292 292 293 293 292 293 293 292 293 293 293 293 293 293 293 293 293 294 294 294 293 293 293 293 292 291 291 291 290 290 290 290 290 291 291 292 292 293 293 293 293 293 293 293 293 293 293 293 293 292 293 293 294 295 295 295 294 294 294 295 295 296 296 297 298 299 301 302 304
292 292 292 292 292 292 292 292 292 292 292 292 292 293 293 293 293 294 294 293 293 293 293 293 292 291 291 291 290 290 290 290 290 290 291 292 292 292 292 292 292 292 293 293 293 293 293 293 292 292 292 293 294 294 295 294 294 294 294 294 294 295 295 296 297 299 300 301 302
292 292 292 292 292 292 292 292 292 292 292 292 292 292 293 293 293 293 293 293 293 292 292 292 292 292 291 290 290 290 290 290 289 289 290 291 291 292 292 292 292 292 292 293 293 293 293 293 292 292 292 292 293 293 294 295 294 294 294 294 294 294 294 295 296 298 299 300 301
291 291 291 291 291 291 291 291 292 292 292 292 292 292 293 293 293 294 293 293 292 292 292 292 292 292 291 291 290 290 290 290 289 289 289 290 291 291 292 292 292 292 292 293 293 293 293 293 292 292 292 292 292 293 293 294 294 294 294 294 294 294 294 295 296 297 298 299 300
291 291 291 291 291 291 291 291 292 292 291 292 292 292 292 293 293 293 293 293 292 292 292 291 291 291 291 291 290 290 289 289 289 289 289 289 290 291 291 292 292 292 292 293 293 293 293 293 293 293 293 292 292 292 292 293 293 294 294 294 294 294 294 295 295 297 298 299 300
290 290 290 290 290 290 290 291 291 291 291 291 292 292 292 292 293 293 293 293 293 292 292 291 291 290 290 290 290 290 289 289 289 289 289 289 290 291 291 292 292 292 293 293 293 293 293 293 293 293 293 293 293 293 293 293 293 294 294 294 294 294 294 295 296 297 298 299 299
289 289 289 289 289 289 290 290 290 291 291 291 291 291 292 292 292 293 293 293 293 292 292 291 291 291 290 290 290 290 290 289 289 289 289 289 290 291 291 292 292 292 292 293 292 293 293 293 293 293 293 293 293 293 293 293 294 294 294 294 294 294 295 295 296 297 298 298 299
288 289 289 289 289 289 289 290 290 290 290 290 291 291 291 292 292 292 292 292 292 292 292 291 291 291 291 290 290 290 290 289 289 289 289 290 291 291 291 292 292 292 292 292 292 293 293 293 293 293 293 293 293 293 293 293 294 294 294 294 294 294 294 295 296 297 298 298 299
288 288 288 289 289 289 289 289 290 290 290 290 291 291 291 291 291 291 291 291 292 292 292 291 291 291 291 290 290 289 289 290 289 289 289 290 291 291 291 292 292 292 292 292 292 293 293 293 293 293 293 293 293 293 293 293 294 294 294 294 294 294 295 295 296 297 298 299 299
288 288 288 288 289 289 289 289 289 290 290 290 290 290 290 291 291 291 291 291 291 291 291 291 291 291 290 290 290 289 289 290 289 289 289 290 291 291 291 292 292 292 293 293 293 293 293 293 293 293 293 293 293 293 293 294 294 294 294 294 294 294 295 295 296 297 298 298 299
287 288 288 288 289 289 289 289 289 289 290 290 290 290 290 290 291 291 291 291 291 291 291 291 290 290 290 290 290 289 289 290 289 289 290 290 291 291 292 292 292 292 293 293 293 293 293 293 293 293 293 293 293 293 293 293 293 294 294 294 294 294 295 295 296 297 298 298 299
287 288 288 288 288 289 289 289 289 289 289 289 289 290 290 290 291 291 291 291 291 291 291 291 291 290 290 290 290 289 289 289 289 289 289 290 291 291 292 292 292 292 293 293 293 293 293 293 293 293 293 293 293 294 294 294 294 294 293 293 294 294 295 296 296 297 298 298 299
287 288 288 289 288 288 288 288 289 288 289 289 289 289 290 290 290 291 291 291 291 291 291 291 291 291 290 290 290 289 289 289 289 289 289 290 291 291 291 292 292 292 293 293 294 294 294 294 293 294 294 294 294 294 294 294 294 294 293 294 294 295 295 296 297 298 298 298 299
287 287 288 288 288 288 288 288 288 288 288 289 289 290 290 290 291 291 291 290 290 290 290 291 291 290 290 290 290 290 289 289 289 289 289 290 291 291 292 292 292 293 293 294 295 296 296 296 295 295 295 295 295 295 295 295 294 294 294 294 294 295 295 296 297 298 298 298 299
287 287 287 287 287 287 287 288 288 288 288 289 289 290 290 290 290 290 290 290 290 290 290 290 290 291 291 290 290 289 289 289 289 289 290 290 290 291 292 292 292 293 294 295 296 297 297 297 297 297 296 296 295 295 295 295 295 295 294 294 294 295 295 296 296 297 297 298 299
286 286 287 287 287 287 287 287 288 288 288 289 289 289 290 290 290 290 290 290 290 290 290 290 290 291 291 291 290 289 289 289 289 290 290 290 290 291 291 292 292 293 294 295 296 297 297 298 298 298 298 296 296 296 296 295 295 295 295 295 295 295 295 296 296 296 297 297 298
286 286 286 286 286 286 287 287 287 287 288 288 289 289 290 290 290 290 290 290 290 290 290 290 290 291 291 290 289 289 289 289 289 290 290 290 291 291 291 292 292 293 294 295 296 297 297 298 298 298 298 297 297 296 296 296 296 296 296 295 295 296 296 296 297 297 297 297 298
285 286 286 286 286 286 286 287 287 287 288 288 289 289 289 290 290 290 290 290 289 290 290 290 290 291 290 289 289 289 289 289 289 290 290 290 290 291 291 292 292 293 294 295 296 297 297 297 298 298 298 298 297 297 296 296 296 296 296 296 296 296 297 297 297 297 297 298 299
285 285 285 285 285 286 286 286 286 287 287 288 288 289 289 289 289 289 289 289 289 289 290 290 290 290 289 289 288 289 289 289 289 289 290 290 290 290 291 291 292 293 294 295 296 296 297 297 297 298 298 299 298 297 297 297 296 296 296 296 297 297 297 297 297 297 297 298 298
285 285 285 285 285 285 286 286 286 286 287 287 288 288 288 288 288 289 289 289 289 290 290 290 290 289 289 289 289 289 289 289 289 289 289 289 290 290 290 291 291 293 294 295 296 296 297 297 298 298 299 299 298 297 297 297 297 297 297 297 297 297 296 296 296 297 297 297 297
285 285 285 285 285 285 285 286 286 286 286 287 287 287 287 287 288 288 289 289 290 290 289 289 289 288 288 288 288 288 288 289 289 289 289 290 290 290 291 291 292 293 294 295 296 297 298 299 299 300 300 300 299 298 297 297 297 297 297 296 296 296 296 296 296 296 296 297 297
284 284 284 284 284 285 285 285 286 286 286 286 286 286 286 287 287 288 289 290 290 289 289 289 288 288 288 288 288 288 288 288 289 289 290 290 290 290 291 291 292 293 294 295 296 297 298 299 299 300 300 301 300 299 298 297 297 296 296 295 295 295 295 295 295 295 295 296 296
284 284 284 284 284 285 285 285 285 286 285 285 285 286 286 286 287 287 288 289 289 289 289 289 288 288 288 288 288 288 288 289 289 289 289 290 290 290 291 291 291 293 294 295 296 297 298 298 298 298 299 299 299 298 297 296 296 295 294 293 293 293 293 294 294 294 295 295 295
283 283 283 284 284 284 285 285 285 285 285 285 285 285 285 286 286 287 288 289 289 289 289 289 288 288 288 288 288 288 288 288 288 289 289 289 290 290 290 290 291 292 294 295 296 297 297 297 297 297 297 296 295 293 293 293 293 293 292 292 292 293 293 294 294 294 295 295 295
283 283 283 283 284 284 285 285 285 285 285 284 284 285 285 285 286 287 288 289 289 289 288 288 288 288 288 288 288 288 288 288 288 288 289 289 289 289 289 290 290 292 293 295 296 296 297 297 297 297 296 295 293 292 292 292 292 292 292 292 292 292 293 294 294 294 294 295 295
283 283 283 283 284 284 284 284 284 284 284 284 284 284 285 285 286 286 288 289 289 288 288 288 288 287 287 287 287 288 288 288 288 288 289 289 289 289 289 289 290 291 293 294 295 296 296 297 297 296 296 294 292 292 292 292 291 291 292 292 292 293 293 293 293 294 294 294 295
283 283 283 283 284 284 284 284 284 283 283 283 284 284 285 285 285 286 287 288 288 288 287 287 287 287 287 287 287 288 288 288 289 289 289 289 289 288 288 288 289 290 292 293 294 295 296 296 296 296 295 293 292 292 292 292 292 292 292 292 292 292 293 292 292 293 293 294 295
283 283 283 283 284 283 283 283 283 283 283 283 283 284 284 284 285 286 287 288 288 288 287 287 287 287 287 288 288 288 288 288 289 289 289 288 288 289 289 288 289 290 291 293 294 295 295 296 296 296 295 294 292 292 292 292 291 291 292 292 292 292 292 292 292 292 293 294 295
283 284 284 283 283 283 283 283 283 283 283 283 283 283 284 284 285 286 287 288 288 288 288 287 287 287 288 288 288 287 287 288 288 288 288 288 288 289 289 289 289 290 291 292 293 294 295 296 296 296 295 293 292 292 292 292 291 291 291 291 291 291 291 291 292 292 293 294 295
283 283 284 284 284 283 283 283 283 283 283 283 283 283 284 284 285 286 286 287 288 288 288 288 287 287 288 288 288 287 287 287 287 288 288 288 288 289 289 289 289 289 290 292 293 294 295 296 296 295 294 293 291 291 291 292 291 291 290 291 291 291 291 291 292 292 293 293 294
Wind_Speed
7 6 6 6 6 6 6 6 7 6 6 5 6 6 5 5 6 6 5 5 5 5 5 4 4 4 4 5 6 6 7 7 7 8 9 10 10 10 10 10 10 10 10 10 10 9 9 8 8 8 7 7 8 8 8 8 9 11 11 11 11 11 12 13 13 12 12 11 8
7 7 7 8 7 7 6 6 7 7 6 5 6 6 6 6 6 6 6 5 5 5 4 4 4 4 5 6 6 6 7 7 8 9 9 10 10 10 10 10 10 10 10 10 10 9 8 8 8 8 8 7 8 8 8 8 9 10 12 14 12 10 10 11 11 11 11 10 8
7 7 7 7 7 7 7 7 7 8 8 7 6 6 6 6 6 6 6 6 5 5 5 5 4 5 5 6 6 6 6 7 8 9 9 10 11 11 10 10 10 10 10 9 9 9 9 9 9 8 8 8 8 9 9 9 9 10 12 13 11 9 9 9 9 9 9 7 8
7 7 7 7 8 8 8 8 9 9 9 8 8 7 7 6 6 6 6 6 6 5 5 5 5 5 5 6 6 6 6 7 8 9 10 11 11 12 11 11 10 10 10 9 9 9 10 9 8 8 8 9 10 9 9 8 9 10 10 10 9 9 9 8 8 8 8 7 8
7 7 7 7 8 9 9 9 10 10 10 8 8 7 7 7 6 6 6 6 6 6 6 6 6 5 5 6 6 7 7 8 9 9 10 11 12 12 12 12 11 10 10 9 9 10 10 10 8 8 8 8 8 8 8 9 10 10 10 9 9 9 9 8 8 7 7 7 7
7 7 8 8 9 9 9 9 10 10 10 9 9 9 9 8 7 7 7 7 7 7 7 7 7 6 6 6 7 7 7 8 8 9 10 11 12 12 13 13 12 11 10 9 10 10 9 9 8 8 8 8 7 7 8 9 9 10 10 10 9 9 9 9 8 8 8 8 8
8 9 9 9 9 9 9 10 10 10 10 9 10 11 11 10 10 10 10 9 8 7 7 7 7 7 6 6 7 7 7 7 8 9 10 11 11 12 13 13 13 12 11 10 10 9 9 8 8 8 8 8 8 8 8 9 9 10 10 11 10 9 9 10 9 9 10 12 12
9 9 9 9 10 10 10 11 10 10 10 9 10 12 12 12 12 12 11 10 9 8 7 6 7 7 7 7 7 7 7 8 8 9 10 10 12 12 13 14 13 13 12 11 10 9 9 8 8 8 8 8 7 8 9 9 10 11 12 12 11 10 9 9 9 10 11 14 15
8 9 9 9 10 10 10 11 11 11 11 11 12 13 13 13 13 13 12 10 9 8 7 6 7 8 8 7 8 7 7 8 8 9 10 10 12 13 13 13 13 13 12 11 11 10 10 8 8 8 8 8 8 9 9 10 11 12 13 12 11 11 11 10 11 12 13 14 16
10 10 10 10 10 10 10 10 11 11 12 12 13 13 14 14 14 13 11 10 9 9 8 7 8 8 8 8 8 8 8 7 8 9 10 11 12 12 12 12 12 12 12 11 11 10 10 9 9 9 9 9 10 11 11 11 12 12 12 10 11 12 14 13 13 14 14 14 15
11 11 10 10 10 10 10 10 10 11 11 12 12 13 13 13 13 12 11 10 10 10 10 9 9 9 9 8 8 8 8 7 7 8 10 11 11 12 12 12 12 12 13 12 11 10 9 9 10 10 11 10 11 11 11 11 11 12 12 11 13 14 15 16 15 14 13 14 15
12 11 11 10 10 10 10 10 10 10 11 12 12 12 12 12 12 12 12 11 11 11 11 10 9 9 9 8 8 8 8 7 8 8 9 10 11 12 12 12 12 13 13 13 12 10 10 10 10 11 11 12 11 10 10 10 11 12 12 13 13 14 15 15 15 13 12 13 15
12 11 11 10 10 10 10 10 10 10 11 12 12 11 11 11 11 11 11 11 12 11 10 9 9 9 9 8 8 8 7 7 8 8 9 10 10 11 12 12 13 13 14 13 12 11 10 10 10 11 12 12 11 11 11 12 12 12 13 13 13 14 14 15 14 14 13 14 15
12 12 11 11 11 10 10 10 10 10 10 11 11 11 11 11 11 11 11 11 11 11 10 9 8 8 8 8 8 8 8 7 7 8 9 9 10 11 12 13 13 14 14 13 12 11 11 11 11 11 12 13 13 13 13 13 13 14 14 15 15 15 15 14 14 14 14 15 16
12 12 12 11 11 10 10 10 9 9 10 11 11 11 10 10 10 10 10 11 11 10 9 9 8 8 8 8 8 8 8 7 8 8 9 10 10 11 12 13 14 14 13 13 12 12 12 12 12 12 12 13 13 13 13 13 14 14 14 15 16 16 16 15 15 14 14 15 15
12 12 12 12 11 11 10 10 9 9 10 11 11 11 11 10 10 10 11 11 10 10 9 9 9 8 8 8 8 8 7 7 8 9 10 10 10 11 12 13 14 14 14 14 13 13 12 12 12 12 12 13 13 13 13 13 14 15 15 15 16 16 16 16 16 15 14 14 15
13 12 12 12 12 11 11 10 10 10 10 11 12 12 11 11 11 11 11 12 11 10 10 10 9 8 8 8 7 7 7 7 8 9 10 10 10 11 11 12 13 13 14 14 14 13 13 13 12 12 13 13 13 14 14 14 15 15 15 16 16 16 16 17 16 15 15 15 15
13 13 12 12 12 12 12 12 11 11 12 13 13 12 12 12 12 12 12 12 12 12 12 12 11 10 9 9 8 7 7 8 9 9 10 10 11 11 11 12 13 13 14 14 14 14 15 14 13 13 13 13 13 14 14 14 15 15 15 15 15 16 16 17 16 15 14 15 16
13 13 12 12 12 12 12 12 12 12 13 13 13 13 13 13 13 13 13 13 13 13 13 13 12 11 11 11 10 9 8 9 10 10 11 11 11 12 12 13 13 14 14 15 15 15 15 15 14 14 13 13 13 14 14 15 15 15 15 15 15 15 15 16 15 15 14 15 16
13 13 13 12 12 12 13 13 13 13 13 13 13 13 14 14 13 13 14 14 13 13 13 14 13 13 12 11 11 10 9 9 10 11 12 11 12 12 13 13 13 14 15 15 15 15 15 15 14 14 14 14 14 14 15 15 15 16 15 15 14 14 14 14 14 14 14 14 15
13 13 13 13 13 13 13 13 13 13 13 13 14 14 14 14 14 14 14 14 14 14 14 14 14 13 13 12 12 11 10 9 10 11 11 11 12 12 13 13 13 14 14 14 15 15 15 15 15 14 14 14 14 15 15 15 15 16 15 14 13 13 14 14 14 14 14 15 15
13 13 13 13 13 13 13 13 13 13 13 13 14 14 14 14 14 14 14 14 14 14 14 14 14 14 13 13 12 12 11 10 10 10 11 11 12 12 12 12 13 14 14 14 14 15 15 15 15 15 15 14 15 15 15 15 15 15 15 14 14 14 15 15 14 14 14 14 15
13 13 13 12 13 13 14 14 13 13 13 14 14 14 14 14 14 14 14 14 14 14 14 14 13 13 13 12 12 12 11 11 11 11 11 11 12 13 13 12 13 14 14 13 13 13 14 14 15 15 15 14 15 15 15 15 15 14 14 14 14 15 15 15 15 15 14 14 14
14 13 13 12 13 13 14 13 13 14 14 14 14 14 14 14 14 14 14 14 14 14 14 13 13 13 13 12 12 12 12 12 12 12 12 12 12 13 13 13 13 13 13 12 12 13 13 12 12 13 13 14 14 14 14 14 14 13 13 13 14 14 14 15 15 15 14 14 13
14 14 14 13 14 14 14 13 14 14 14 14 14 14 14 14 14 14 14 14 14 15 15 15 14 13 13 12 12 12 12 12 13 13 13 13 13 13 13 12 12 11 11 11 15 18 19 17 14 12 11 12 12 13 13 13 13 13 13 13 13 14 14 14 14 14 14 13 13
14 14 14 14 14 14 14 14 14 14 14 14 15 15 15 15 14 14 14 15 14 14 15 15 14 14 13 12 12 12 12 12 13 13 14 13 13 13 12 11 10 10 10 12 17 20 22 23 21 18 15 12 12 11 12 12 12 13 13 13 13 13 14 14 13 13 12 12 13
14 14 14 14 14 15 14 14 14 14 14 15 15 15 15 14 14 14 14 14 14 14 14 14 14 14 13 12 12 12 12 11 12 13 14 14 14 14 13 12 10 9 9 13 18 21 23 24 25 24 21 15 13 12 12 11 12 13 13 13 13 13 14 14 14 13 12 12 12
14 14 14 15 15 15 15 14 14 14 14 15 15 15 15 15 15 15 14 14 14 14 13 13 12 11 10 9 10 11 11 12 12 12 13 14 14 14 14 12 10 10 12 16 20 23 24 25 26 26 25 21 16 13 12 12 12 11 11 11 12 13 13 14 12 12 11 11 11
15 15 15 15 15 15 15 14 14 14 14 15 16 16 17 17 16 15 14 14 15 14 13 11 10 9 9 8 9 10 11 12 12 12 12 14 14 14 14 13 12 13 16 21 23 24 25 26 27 28 28 26 18 13 10 10 10 9 9 9 10 11 11 11 11 10 10 10 10
15 15 15 15 15 15 15 14 14 14 15 15 16 17 18 18 17 16 15 15 15 14 13 12 11 10 10 10 10 10 11 11 11 12 13 15 15 15 15 14 13 14 16 21 23 25 26 27 28 29 29 28 22 16 11 9 9 8 8 8 9 10 11 11 11 10 9 8 8
14 14 14 15 15 15 15 14 15 15 15 16 17 18 18 18 18 17 16 15 15 14 14 13 13 13 13 12 11 11 12 12 12 13 14 15 16 16 16 15 14 15 17 21 24 26 27 28 29 29 29 28 22 16 11 10 9 9 8 9 10 10 10 10 9 8 8 8 7
14 14 14 14 15 15 15 15 15 16 16 17 18 18 18 18 17 16 15 15 14 14 14 14 14 14 14 13 12 12 13 13 14 14 14 15 15 15 15 14 14 15 17 21 24 25 26 26 25 25 25 25 21 16 12 11 10 10 9 10 11 10 9 7 6 7 7 7 7
14 13 14 14 14 15 15 16 16 17 17 18 18 18 17 17 16 16 16 15 14 14 13 13 13 14 13 13 13 13 14 14 14 15 15 15 15 14 14 13 12 13 16 21 23 24 23 21 20 19 18 18 15 13 12 11 10 9 8 9 8 8 7 6 6 5 6 6 6
13 13 13 14 14 15 16 16 17 18 18 18 18 17 17 16 16 16 16 14 13 13 12 12 12 12 12 12 13 13 14 14 14 14 14 14 14 14 13 12 10 12 16 21 22 22 20 18 17 17 16 15 10 7 8 9 7 7 6 6 6 5 5 5 5 5 5 5 4
13 13 13 14 15 16 17 18 18 18 19 19 19 18 17 16 16 16 16 15 14 14 13 11 11 11 12 12 12 13 14 15 15 15 14 13 13 13 13 12 11 13 17 21 21 20 19 17 16 14 12 10 7 4 3 4 4 4 5 5 5 4 4 4 4 5 5 4 4
13 13 13 14 15 16 17 18 19 19 19 19 19 18 17 16 16 16 15 15 15 15 14 13 12 12 12 13 13 13 14 15 15 15 14 13 13 13 13 12 12 14 17 20 20 19 18 17 16 14 11 6 4 3 3 2 2 3 3 4 4 4 4 4 4 4 4 4 4
13 13 13 15 16 17 17 18 18 19 19 19 18 18 17 17 16 16 15 15 15 15 14 13 13 13 13 13 13 13 13 13 14 14 14 13 13 12 12 12 12 13 15 18 19 18 18 17 16 14 11 6 4 3 3 3 2 3 3 4 4 4 4 3 3 3 3 3 3
13 13 13 14 16 16 17 18 18 19 19 19 18 17 16 16 16 15 15 15 15 15 14 13 13 13 13 13 13 14 14 13 14 14 13 13 12 11 11 11 12 12 13 16 17 18 18 17 16 14 10 6 4 4 4 3 3 3 4 4 3 3 3 2 1 1 1 2 3
13 13 14 14 15 16 17 17 18 18 19 18 17 17 16 16 15 15 15 15 15 15 14 14 13 13 13 14 13 14 14 14 14 13 13 12 11 12 12 12 11 11 12 15 17 18 18 17 16 13 10 6 4 4 4 4 4 4 4 3 3 2 2 2 1 1 2 3 4
13 14 14 15 15 16 17 17 18 18 17 17 17 17 16 16 16 16 16 15 15 15 14 13 13 13 13 13 13 14 13 13 12 12 12 12 12 13 13 13 11 11 12 14 16 17 17 17 15 13 9 5 4 4 4 3 3 3 3 2 2 2 2 2 2 2 3 3 5
13 14 15 16 16 16 17 17 17 17 16 16 17 16 16 16 16 16 16 15 15 14 13 12 13 13 13 13 13 12 13 13 12 11 11 11 12 12 12 11 11 10 11 12 14 16 17 16 14 12 8 4 3 4 4 3 3 3 2 2 2 2 3 2 2 2 3 3 3
Wind_Direction
285 284 284 284 285 285 284 283 281 278 276 274 273 272 270 269 268 267 265 262 262 262 262 261 262 265 270 273 276 279 282 284 286 287 288 288 288 288 288 287 286 285 285 286 288 290 291 292 292 292 291 289 287 287 287 287 290 291 290 289 289 288 287 285 283 281 279 276 275
282 281 281 283 284 285 286 285 284 281 278 275 273 271 270 268 267 266 265 260 258 258 259 261 261 262 265 266 268 271 275 279 283 285 286 286 285 284 283 282 281 281 282 285 288 290 291 292 292 292 291 289 288 288 288 287 289 289 289 289 288 287 286 284 283 282 280 277 276
281 281 282 283 285 286 287 287 286 284 282 281 278 276 274 271 269 268 266 262 259 258 258 260 260 259 258 260 261 264 268 274 280 283 284 284 283 281 279 278 279 280 282 285 287 288 289 290 290 290 289 289 290 290 290 289 290 289 289 289 287 286 285 284 287 287 285 281 278
282 283 284 285 285 285 285 287 287 286 286 285 283 281 277 274 272 269 267 265 262 259 257 256 256 254 253 255 257 260 264 269 275 279 281 283 283 281 280 279 280 282 283 285 285 285 285 287 287 287 286 287 287 288 289 290 291 290 289 288 287 285 284 283 285 284 282 278 274
287 285 285 285 284 284 283 284 285 286 286 286 285 283 280 277 275 273 270 268 263 258 253 249 250 249 248 249 254 258 263 268 273 276 279 282 283 282 282 282 282 282 282 281 280 281 282 284 284 284 283 284 284 284 286 289 291 291 290 289 287 286 285 284 283 281 277 272 267
288 286 284 283 282 283 283 283 283 283 284 285 284 282 280 278 277 274 272 269 265 260 256 253 252 251 251 250 254 258 262 266 269 273 277 280 281 281 281 281 281 280 278 277 277 278 280 283 283 282 282 282 281 282 285 289 291 291 290 289 289 290 290 291 292 291 289 284 278
286 285 285 283 283 283 283 283 283 283 284 283 281 280 278 277 276 274 272 270 270 267 264 261 258 256 256 254 256 259 262 265 268 271 274 277 277 278 279 279 279 279 278 278 278 279 281 282 282 281 281 282 283 284 286 288 288 289 288 288 289 290 292 294 296 298 298 297 294
285 284 283 283 283 282 282 283 283 284 284 283 281 279 278 278 277 276 275 274 272 270 268 266 261 258 256 255 256 258 260 263 266 268 271 272 274 275 276 277 278 278 278 278 279 279 279 279 278 278 279 281 281 283 284 285 284 284 285 285 286 287 289 291 294 295 296 297 296
288 286 284 283 282 282 282 282 283 283 283 282 280 279 279 279 278 277 276 275 272 270 268 266 262 259 257 254 254 255 256 259 262 264 267 269 271 272 274 276 277 277 277 277 276 276 275 275 274 274 274 275 277 279 280 281 281 281 282 284 286 287 289 290 293 294 294 294 292
290 288 287 285 283 283 283 284 284 283 282 282 280 279 279 279 278 277 275 274 273 271 268 265 263 261 259 256 255 254 254 255 258 261 264 267 268 269 271 272 274 275 275 276 275 274 273 271 269 268 268 269 271 273 275 276 278 280 282 285 288 290 291 292 292 293 292 291 289
290 288 287 285 284 285 285 287 286 285 284 282 281 280 279 278 277 275 274 274 273 271 268 265 263 262 260 259 256 254 253 253 255 257 260 263 264 266 267 268 271 273 274 275 274 272 270 268 266 265 265 266 268 271 273 276 278 281 282 284 286 288 288 289 289 289 289 289 289
290 289 287 285 285 287 288 288 288 287 286 284 282 281 279 277 275 274 274 273 271 269 268 265 262 260 259 259 257 256 255 252 252 254 257 260 262 264 265 267 269 271 272 273 271 269 267 265 266 268 271 273 274 276 277 278 279 280 281 281 282 283 284 285 286 287 288 289 290
291 290 289 288 288 288 289 289 289 288 287 285 283 282 281 279 277 276 275 273 270 269 268 266 261 259 258 258 257 256 255 252 251 253 257 260 263 265 267 268 269 271 271 272 270 268 267 266 267 270 273 275 276 277 278 279 280 281 281 283 283 283 283 284 286 286 288 289 289
292 292 291 291 291 290 289 289 288 288 287 286 285 284 283 282 281 279 277 274 272 271 270 268 265 261 259 257 257 256 255 255 254 255 257 260 263 265 267 268 268 269 270 271 270 268 267 267 267 269 271 274 275 277 279 281 281 282 282 283 284 284 284 284 284 285 286 287 287
294 294 294 293 293 291 290 289 288 288 287 286 286 286 286 286 285 283 281 278 275 274 272 271 268 265 262 259 258 257 257 259 260 261 262 263 263 264 265 266 266 267 268 269 269 268 267 267 268 269 271 273 275 277 279 280 280 280 280 281 281 282 282 282 283 283 283 284 285
296 296 296 295 294 292 290 289 288 289 289 288 289 289 289 289 288 287 285 282 280 278 275 272 269 268 265 261 259 260 261 263 265 266 267 266 265 264 264 265 266 266 267 268 269 269 269 268 269 269 270 272 274 275 276 277 277 277 277 277 278 279 279 280 280 280 280 281 283
297 297 297 296 294 292 290 290 290 290 290 290 291 291 291 291 290 289 288 286 284 282 280 276 274 272 270 268 265 264 265 267 268 268 268 268 267 266 266 266 267 268 269 269 270 271 271 270 270 270 269 269 271 272 272 273 274 274 274 275 275 276 276 277 277 277 278 280 281
298 297 297 296 294 293 292 291 291 291 291 292 292 292 292 291 291 290 288 287 285 283 282 280 278 275 273 272 270 269 268 268 268 268 268 268 268 268 268 269 269 270 270 270 271 271 271 271 270 269 268 267 268 269 270 271 271 272 272 272 272 273 273 274 274 275 276 278 279
298 297 297 296 295 294 293 293 293 292 292 292 292 292 292 291 290 289 288 287 284 282 280 279 278 275 273 271 270 269 267 266 267 267 267 267 268 268 268 268 268 268 268 268 268 268 268 268 268 267 266 266 266 267 268 269 270 270 270 270 270 270 270 270 270 271 272 274 276
297 297 297 296 295 295 294 294 293 293 293 292 292 292 291 291 290 289 288 286 285 282 280 278 276 274 272 270 269 268 267 265 266 267 267 267 267 266 266 266 265 265 265 265 265 265 265 266 266 266 266 266 266 266 267 268 268 269 269 270 269 269 268 268 268 268 269 271 274
296 296 296 296 296 295 294 294 293 293 293 293 292 292 292 291 290 289 288 286 285 283 280 277 275 273 272 271 269 268 266 265 265 265 266 267 267 266 265 264 264 263 262 262 262 263 264 264 265 266 266 265 265 265 265 266 267 268 269 270 269 269 268 267 267 268 269 271 271
295 296 296 296 295 295 294 294 294 294 294 293 293 292 292 292 291 290 288 288 287 284 281 278 275 273 271 270 269 268 267 267 265 265 266 268 268 267 266 264 263 262 261 260 261 261 263 264 265 266 266 266 264 263 263 263 265 266 267 268 268 269 268 267 266 266 267 267 268
295 296 297 296 296 295 295 295 295 295 294 294 293 293 293 292 291 291 290 289 288 285 283 280 277 274 271 269 268 268 268 269 268 267 267 267 268 268 267 265 263 262 261 260 260 261 262 264 265 265 265 264 264 263 262 262 262 263 264 265 266 267 267 267 265 265 264 265 265
296 297 297 297 296 296 296 296 296 296 295 295 294 294 293 293 292 292 291 290 288 286 284 282 279 276 273 271 269 268 268 269 270 270 269 268 268 267 266 264 262 261 260 259 259 259 260 262 263 263 262 261 261 261 260 259 259 259 261 262 264 266 266 265 264 264 264 264 264
297 297 297 297 297 296 296 296 296 296 295 295 295 295 294 294 293 292 291 290 288 287 285 283 281 278 275 272 270 268 267 268 270 271 271 270 268 267 265 264 262 260 259 258 260 262 263 263 263 262 261 260 259 258 257 256 254 255 256 258 261 263 265 265 264 263 263 263 263
298 298 298 297 297 297 296 296 296 296 296 297 297 297 295 294 292 291 290 289 288 287 285 283 281 279 276 274 271 269 267 267 269 271 273 273 272 270 267 264 262 259 258 258 262 264 266 267 267 267 266 264 261 259 257 255 253 253 253 255 257 260 263 264 264 262 261 262 262
299 298 298 298 297 297 296 296 296 297 298 299 299 297 296 293 292 290 289 288 288 287 286 284 281 279 277 274 272 270 268 268 270 272 274 275 275 274 271 268 265 262 261 263 267 269 271 271 271 271 270 268 265 262 259 257 255 253 252 252 253 256 258 260 261 261 261 262 262
299 299 298 298 298 297 296 296 297 298 299 300 300 299 297 295 293 291 290 289 289 289 288 286 283 280 278 274 271 270 270 270 272 274 276 276 276 275 273 271 269 268 268 270 272 273 274 274 274 273 272 269 266 262 259 257 254 251 248 246 248 251 253 255 256 257 258 260 260
299 299 299 299 298 297 297 298 299 300 301 301 301 300 299 298 295 293 291 291 290 290 289 288 286 284 280 276 273 273 272 273 274 276 277 277 276 275 273 272 272 272 272 274 276 277 277 277 276 275 273 271 268 263 257 253 250 247 244 242 244 246 249 250 251 252 254 256 255
299 299 299 298 298 298 298 299 300 301 302 303 303 302 301 300 298 295 293 292 291 290 289 288 287 285 281 277 276 276 276 275 276 277 277 276 275 274 273 272 272 273 274 277 279 280 280 279 278 276 273 271 267 263 257 251 248 244 242 242 245 246 247 247 246 247 249 251 250
298 298 298 298 298 299 300 301 302 303 304 304 303 302 301 300 298 296 294 292 290 289 288 287 285 282 279 277 276 275 275 275 275 275 274 273 273 272 272 272 272 273 276 279 280 281 281 280 278 275 272 268 264 259 253 249 246 244 242 244 245 245 243 240 238 239 242 245 245
298 298 298 299 300 300 301 303 304 305 304 304 303 301 300 299 297 295 293 291 289 288 287 286 284 282 279 277 275 274 274 274 274 273 272 271 270 270 270 271 271 274 277 280 281 282 284 286 287 284 278 269 261 254 247 244 244 243 243 243 241 238 232 227 228 232 236 240 239
298 298 299 300 301 302 304 305 305 305 304 303 302 300 299 298 296 294 292 290 289 287 286 284 283 281 279 277 275 274 273 273 273 272 271 270 270 270 271 272 272 276 279 282 283 286 291 300 310 313 306 289 269 252 240 237 238 238 237 235 230 225 219 218 222 227 232 236 234
298 299 300 301 302 304 305 306 306 305 304 303 301 300 298 297 296 294 293 291 289 287 285 283 281 279 277 275 274 273 273 273 273 272 272 271 271 271 272 272 273 278 281 284 286 291 299 311 322 329 331 325 308 277 245 232 228 224 219 216 214 212 212 215 220 225 230 232 225
299 300 301 302 303 305 305 306 305 305 304 302 301 300 299 297 296 294 293 291 290 288 286 283 280 277 275 273 272 271 272 273 273 273 272 271 272 272 272 273 274 279 283 286 290 295 301 307 312 319 328 338 339 329 288 235 218 207 202 200 203 208 213 217 221 224 225 223 209
299 300 302 303 304 305 305 305 305 304 303 302 301 300 299 298 297 295 294 293 291 289 286 284 281 279 276 275 273 271 271 271 273 272 272 271 271 271 272 273 275 280 284 288 292 296 299 302 303 306 310 319 323 322 314 287 236 209 202 199 203 207 212 216 217 218 218 214 198
299 300 301 303 304 304 305 305 304 303 302 301 301 300 300 299 298 297 295 294 291 289 286 283 281 279 277 276 274 272 271 270 271 271 271 270 269 270 271 274 276 280 284 288 292 295 297 299 299 300 300 300 298 294 290 279 257 232 216 209 207 206 206 208 208 209 208 201 187
298 299 301 302 303 303 304 304 303 303 302 301 300 300 300 300 299 298 296 295 291 288 286 283 281 279 278 276 275 273 271 269 268 269 269 269 269 269 271 274 276 279 282 287 290 293 295 296 297 296 295 289 283 277 271 264 251 236 223 211 202 193 185 181 179 175 167 161 158
298 299 300 301 301 302 302 302 302 301 301 301 300 300 300 300 299 297 296 293 289 286 284 282 280 279 278 278 276 273 271 269 267 267 268 269 269 270 271 273 275 277 280 284 288 291 293 294 294 294 292 287 282 277 271 262 249 237 225 206 185 167 155 149 143 131 121 119 128
297 299 300 300 301 301 301 301 300 300 300 300 300 300 300 299 298 296 295 291 287 284 282 279 278 278 277 277 275 273 271 268 266 265 265 266 267 269 270 271 273 275 279 283 287 289 291 293 293 292 290 287 288 287 281 268 252 238 223 196 169 154 146 142 132 119 110 109 117
298 299 300 300 300 300 300 300 300 300 300 299 299 299 298 298 296 295 294 291 288 286 283 280 278 278 277 276 274 271 269 268 265 263 263 263 265 267 268 269 271 274 278 282 286 288 290 291 292 290 285 275 281 286 285 274 255 235 213 184 164 153 147 140 128 116 110 109 114